TimePST,TemperatureF,Dew PointF,Humidity,Sea Level PressureIn,VisibilityMPH,Wind Direction,Wind SpeedMPH,Gust SpeedMPH,PrecipitationIn,Events,Conditions,WindDirDegrees,DateUTC
12:18 AM,50.0,50.0,100,30.12,3.0,NNE,2.3,-,N/A,,Clear,20,2012-12-10 08:18:00
12:23 AM,50.0,50.0,100,30.12,1.2,Calm,Calm,-,N/A,,Clear,0,2012-12-10 08:23:00
12:28 AM,50.0,50.0,100,30.12,0.5,ENE,2.3,-,N/A,Fog,Fog,70,2012-12-10 08:28:00
12:33 AM,50.0,50.0,100,30.12,0.2,NE,1.2,-,N/A,Fog,Fog,50,2012-12-10 08:33:00
12:38 AM,50.0,50.0,100,30.12,0.5,Calm,Calm,-,N/A,Fog,Fog,0,2012-12-10 08:38:00
12:43 AM,48.2,48.2,100,30.12,0.2,Calm,Calm,-,N/A,Fog,Fog,0,2012-12-10 08:43:00
12:58 AM,48.6,48.6,100,30.13,0.5,Calm,Calm,-,N/A,Fog,Fog,0,2012-12-10 08:58:00
1:03 AM,48.2,48.2,100,30.12,0.8,Calm,Calm,-,N/A,,Clear,0,2012-12-10 09:03:00
1:13 AM,48.2,48.2,100,30.12,0.5,Variable,1.2,-,N/A,Fog,Fog,0,2012-12-10 09:13:00
1:18 AM,48.2,48.2,100,30.12,0.2,NW,2.3,-,N/A,Fog,Fog,320,2012-12-10 09:18:00
1:23 AM,48.2,48.2,100,30.12,0.5,NNW,2.3,-,N/A,Fog,Fog,340,2012-12-10 09:23:00
1:28 AM,48.2,48.2,100,30.12,1.5,North,1.2,-,N/A,,Clear,10,2012-12-10 09:28:00
1:33 AM,48.2,48.2,100,30.13,2.5,NE,2.3,-,N/A,,Clear,50,2012-12-10 09:33:00
1:48 AM,48.2,48.2,100,30.13,1.2,North,1.2,-,N/A,,Clear,360,2012-12-10 09:48:00
1:53 AM,48.2,48.2,100,30.12,0.5,NW,3.5,-,N/A,Fog,Fog,320,2012-12-10 09:53:00
1:58 AM,47.5,47.5,100,30.14,0.5,NNW,3.5,-,N/A,Fog,Fog,330,2012-12-10 09:58:00
2:03 AM,46.4,46.4,100,30.13,1.0,North,1.2,-,N/A,,Clear,360,2012-12-10 10:03:00
2:08 AM,46.4,46.4,100,30.13,2.0,NE,1.2,-,N/A,,Clear,40,2012-12-10 10:08:00
2:13 AM,48.2,48.2,100,30.13,1.0,NNE,1.2,-,N/A,,Clear,30,2012-12-10 10:13:00
2:18 AM,48.2,48.2,100,30.13,0.8,Calm,Calm,-,N/A,,Clear,0,2012-12-10 10:18:00
2:23 AM,48.2,48.2,100,30.13,1.2,NE,2.3,-,N/A,,Clear,50,2012-12-10 10:23:00
2:28 AM,46.4,46.4,100,30.12,1.5,North,1.2,-,N/A,,Clear,10,2012-12-10 10:28:00
2:33 AM,48.2,48.2,100,30.12,1.2,NNW,2.3,-,N/A,,Clear,340,2012-12-10 10:33:00
2:38 AM,46.4,46.4,100,30.12,1.2,NNW,2.3,-,N/A,,Clear,330,2012-12-10 10:38:00
2:43 AM,46.4,46.4,100,30.12,2.0,Calm,Calm,-,N/A,,Clear,0,2012-12-10 10:43:00
2:58 AM,46.4,46.4,100,30.13,1.2,Calm,Calm,-,N/A,,Clear,0,2012-12-10 10:58:00
3:03 AM,46.4,46.4,100,30.12,0.8,NNW,2.3,-,N/A,,Clear,330,2012-12-10 11:03:00
3:08 AM,46.4,46.4,100,30.12,0.5,Calm,Calm,-,N/A,Fog,Fog,0,2012-12-10 11:08:00
3:18 AM,46.4,46.4,100,30.12,1.2,Calm,Calm,-,N/A,,Clear,0,2012-12-10 11:18:00
3:23 AM,46.4,46.4,100,30.12,1.0,Calm,Calm,-,N/A,,Clear,0,2012-12-10 11:23:00
3:28 AM,46.4,46.4,100,30.12,0.5,Calm,Calm,-,N/A,Fog,Fog,0,2012-12-10 11:28:00
3:33 AM,46.4,46.4,100,30.11,0.2,Calm,Calm,-,N/A,Fog,Fog,0,2012-12-10 11:33:00
3:48 AM,46.4,46.4,100,30.12,0.5,Calm,Calm,-,N/A,Fog,Fog,0,2012-12-10 11:48:00
3:51 AM,46.4,46.4,100,30.12,0.5,Calm,Calm,-,N/A,Fog,Fog,0,2012-12-10 11:51:00
3:56 AM,46.4,46.4,100,30.12,0.5,Calm,Calm,-,N/A,Fog,Fog,0,2012-12-10 11:56:00
3:58 AM,46.4,46.4,100,30.12,0.5,Calm,Calm,-,N/A,Fog,Fog,0,2012-12-10 11:58:00
4:03 AM,46.4,46.4,100,30.11,1.0,Calm,Calm,-,N/A,,Mist,0,2012-12-10 12:03:00
4:08 AM,48.2,48.2,100,30.11,1.2,Calm,Calm,-,N/A,,Partly Cloudy,0,2012-12-10 12:08:00
4:13 AM,46.4,46.4,100,30.11,0.8,NNE,2.3,-,N/A,,Mist,20,2012-12-10 12:13:00
4:18 AM,46.4,46.4,100,30.11,0.5,ENE,2.3,-,N/A,Fog,Fog,60,2012-12-10 12:18:00
4:28 AM,46.4,46.4,100,30.11,0.5,ENE,2.3,-,N/A,Fog,Fog,60,2012-12-10 12:28:00
4:43 AM,46.4,46.4,100,30.11,0.8,Calm,Calm,-,N/A,,Clear,0,2012-12-10 12:43:00
4:48 AM,46.4,46.4,100,30.10,0.2,Calm,Calm,-,N/A,Fog,Fog,0,2012-12-10 12:48:00
4:58 AM,45.9,45.9,100,30.11,0.2,Calm,Calm,-,N/A,Fog,Fog,0,2012-12-10 12:58:00
5:18 AM,44.6,44.6,100,30.10,0.5,NW,4.6,-,N/A,Fog,Fog,320,2012-12-10 13:18:00
5:23 AM,46.4,46.4,100,30.10,2.0,NNW,3.5,-,N/A,,Clear,340,2012-12-10 13:23:00
5:48 AM,46.4,46.4,100,30.10,1.0,North,2.3,-,N/A,,Clear,10,2012-12-10 13:48:00
5:53 AM,46.4,46.4,100,30.10,0.8,North,2.3,-,N/A,,Clear,350,2012-12-10 13:53:00
5:58 AM,46.0,46.0,100,30.11,0.8,North,2.3,-,N/A,,Clear,350,2012-12-10 13:58:00
6:03 AM,44.6,44.6,100,30.10,1.0,North,1.2,-,N/A,,Clear,10,2012-12-10 14:03:00
6:08 AM,44.6,44.6,100,30.10,2.0,Calm,Calm,-,N/A,,Clear,0,2012-12-10 14:08:00
6:13 AM,46.4,46.4,100,30.10,1.5,Calm,Calm,-,N/A,,Clear,0,2012-12-10 14:13:00
6:18 AM,44.6,44.6,100,30.10,0.5,WNW,2.3,-,N/A,Fog,Fog,300,2012-12-10 14:18:00
6:28 AM,44.6,44.6,100,30.10,0.8,Calm,Calm,-,N/A,,Clear,0,2012-12-10 14:28:00
6:38 AM,42.8,42.8,100,30.11,0.5,North,1.2,-,N/A,Fog,Fog,350,2012-12-10 14:38:00
6:48 AM,44.6,44.6,100,30.11,0.8,Calm,Calm,-,N/A,,Clear,0,2012-12-10 14:48:00
6:53 AM,44.6,44.6,100,30.11,1.0,Calm,Calm,-,N/A,,Clear,0,2012-12-10 14:53:00
6:58 AM,45.3,45.3,100,30.12,1.0,Calm,Calm,-,N/A,,Clear,0,2012-12-10 14:58:00
7:03 AM,44.6,44.6,100,30.11,0.8,Calm,Calm,-,N/A,,Clear,0,2012-12-10 15:03:00
7:18 AM,44.6,44.6,100,30.11,1.0,Calm,Calm,-,N/A,,Clear,0,2012-12-10 15:18:00
7:23 AM,44.6,44.6,100,30.11,0.5,NE,1.2,-,N/A,Fog,Fog,40,2012-12-10 15:23:00
7:28 AM,44.6,44.6,100,30.11,0.2,Variable,1.2,-,N/A,Fog,Fog,0,2012-12-10 15:28:00
7:33 AM,44.6,44.6,100,30.11,0.8,Variable,2.3,-,N/A,,Clear,0,2012-12-10 15:33:00
7:38 AM,46.4,46.4,100,30.11,1.5,Variable,1.2,-,N/A,,Clear,0,2012-12-10 15:38:00
7:45 AM,46.4,46.4,100,30.11,3.0,Calm,Calm,-,N/A,,Clear,0,2012-12-10 15:45:00
7:58 AM,48.2,48.2,100,30.13,4.0,Calm,Calm,-,N/A,,Clear,0,2012-12-10 15:58:00
8:58 AM,53.4,53.4,100,30.14,8.0,Calm,Calm,-,N/A,,Clear,0,2012-12-10 16:58:00
9:58 AM,63.3,38.7,40,30.15,10.0,Calm,Calm,-,N/A,,Clear,0,2012-12-10 17:58:00
10:58 AM,70.2,21.9,16,30.14,10.0,NNW,3.5,-,N/A,,Clear,330,2012-12-10 18:58:00
11:58 AM,73.8,8.6,8,30.11,10.0,NW,5.8,-,N/A,,Clear,310,2012-12-10 19:58:00
12:58 PM,75.2,15.4,10,30.08,10.0,WSW,3.5,-,N/A,,Clear,250,2012-12-10 20:58:00
1:58 PM,76.3,29.8,18,30.06,10.0,SW,6.9,-,N/A,,Clear,220,2012-12-10 21:58:00
2:58 PM,72.0,48.4,43,30.06,10.0,SW,8.1,-,N/A,,Clear,230,2012-12-10 22:58:00
3:58 PM,69.4,40.6,35,30.05,10.0,SW,5.8,-,N/A,,Clear,220,2012-12-10 23:58:00
4:58 PM,64.4,48.7,57,30.05,10.0,WNW,3.5,-,N/A,,Clear,300,2012-12-11 00:58:00
5:58 PM,61.9,47.3,59,30.05,10.0,West,4.6,-,N/A,,Clear,270,2012-12-11 01:58:00
6:58 PM,58.8,53.1,81,30.07,10.0,Calm,Calm,-,N/A,,Clear,0,2012-12-11 02:58:00
7:58 PM,55.0,55.0,100,30.07,9.0,Calm,Calm,-,N/A,,Clear,0,2012-12-11 03:58:00
8:58 PM,54.3,54.3,100,30.07,8.0,ESE,1.2,-,N/A,,Clear,120,2012-12-11 04:58:00
9:58 PM,52.2,52.2,100,30.07,6.0,Calm,Calm,-,N/A,,Clear,0,2012-12-11 05:58:00
10:58 PM,52.0,52.0,100,30.07,7.0,ENE,3.5,-,N/A,,Clear,60,2012-12-11 06:58:00
11:58 PM,51.6,51.3,99,30.06,10.0,NE,3.5,-,N/A,,Clear,50,2012-12-11 07:58:00